STARLINK-31344, 59171

Orbit data source: Space-Track

STARLINK-31344, 59171 is a payload satellite owned by SpaceX/Seattle (US) in LEO that was launched on Mon, 04 Mar 2024 UTC via an FALCON 9 launch vehicle from the Air Force Eastern Test Range (AFETR). Payload-class satellites include a variety of spacecraft equipped with specific instruments for various scientific and technological missions. These include communications satellites like Starlink; space stations such as the ISS; scientific satellites like the Hubble; Earth observation satellites from companies like Planet Labs, Umbra, and HawkEye 360; GPS; miniature CubeSats for education and research; and military/defense satellites.

Loading next visibility...
Identifier
59171, 2024-044V
Orbit
LEO
Country
Flag of USUS
Related business
Manufacturer
SpaceX/Seattle
Mission
Operational Commercial Communications
Bus & Motor
STARLINK V2M, Unknown motor
Mass
730 kg wet, ~700 kg dry
Launch date (UTC)
2024-03-04 (2 years ago)
Launch vehicle
FALCON 9
Launch site
Air Force Eastern Test Range (AFETR)
Object type
Payload
Rocket body
Debris
Shape & HBR
Box + 2 Pan, 17.7 m
Radar Cross Section
33.884 m², Large (>1 m²)

Expand to show TLE details & history
Last TLE update: 2 days ago

TLE from 2 days ago
0 STARLINK-31344
1 59171U 24044V   26171.22351251  .00001580  00000-0  66934-4 0  9991
2 59171  43.0028 248.2398 0002019 255.6174 104.4454 15.27580576129279
Epoch: 2026-06-20T05:21Z
TLE epoch observation values (Epoch: 2026-06-20T05:21:51.480Z)
Latitude
-0.00001°
Longitude
-100.66593°
Altitude
483.169 km
Speed
7.625 km/s
True Right ascension
16h 32m 57s
True Declination
0° 00' 00"
Sunlit
Object was in full shadow at epoch
Visualization orbit readout
Latitude
Unknown
Longitude
Unknown
Altitude
Unknown
Speed
Unknown
Apparent Right ascension
Unknown
Apparent Declination
Unknown
Sunlit
N/A
Visualization observer readout
Local Sidereal Time
21:31:08
Azimuth
Unknown
Elevation
Unknown
Doppler factor
Unknown
Orbital elements
Apogee altitude
486.378 km
Perigee altitude
483.606 km
Semi-major axis
6,863.129 km
Eccentricity
0.0002
Inclination
43.0028°
RAAN
248.2398°
Arg. of periapsis
255.6174°
True anomaly
104.4678°
Mean anomaly
104.4454°
Eccentric anomaly
104.4566°
Mean motion
3.81733 °/min
Orbital period
94.31 mins
BSTAR
0.000066934
Loading maneuver chart data...
Computing Atmospheric mass density...
Loading historical data...
Loading historical data...
Loading historical data...
Loading historical data...
Loading historical data...
Loading historical data...
Loading historical data...

Documentation

Showing up to 5 results
|